sat.trackr.live / text

‹ back to catalog

UNKNOWN

NORAD 89261

UNKNOWN UNKNOWN UNKNOWN

§ Identity

Operator
Country
Launch date
Launch site
Launch vehicle
Mass (kg)
RCS (m²)

External: N2YO · Heavens-Above

§ Orbital elements

Epoch: 2026-09-14T05:43:42.669984Z

Period
99.75 min
Inclination
98.1734°
Eccentricity
0.0013901
Mean motion
14.43592186 rev/d
Perigee alt
736.8 km
Apogee alt
756.6 km
Semi-major
7,124.8 km
B*
1.6750e-4
RAAN
245.2868°
Arg perigee
46.0592°
Mean anomaly
314.1743°
Rev number
57,355

§ Raw data

UNKNOWN1 89261U          26257.23868831  .00000527  00000+0  16750-3 0  99922 89261  98.1734 245.2868 0013901  46.0592 314.1743 14.43592186573556

JSON: /api/v1/satellites/89261 · /tle

For live sub-satellite position, see the globe view (requires WebGL).

§ Visibility from observer

Set your observer location to see the next 7 days of passes ≥ 10°. The values pass through the URL so the page stays shareable.

No JS? Fill the form by hand. The geolocation button needs JavaScript.